Weather History for KIML - February, 2013

Change the Weather History Date:

Monday, February 4, 2013

  Actual Average Record
Temperature  
Mean Temperature 41 °F 30 °F  
Max Temperature 57 °F 42 °F 69 °F (1935)
Min Temperature 24 °F 17 °F -21 °F (1899)
Degree Days  
Heating Degree Days 24 36  
Month to date heating degree days 106 144  
Cooling Degree Days 0 0  
Month to date cooling degree days 0 0  
Year to date cooling degree days 0 0  
Moisture  
Dew Point 19 °F    
Average Humidity 47    
Maximum Humidity 75    
Minimum Humidity 18    
Precipitation  
Precipitation 0.00 in 0.01 in 0.22 in (1945)
Sea Level Pressure  
Sea Level Pressure 29.94 in    
Wind  
Wind Speed 8 mph (WNW)    
Max Wind Speed 15 mph    
Max Gust Speed 18 mph    
Visibility 10 miles    
Events      
T = Trace of Precipitation, MM = Missing Value Source: NWS Daily Summary

Daily Weather History Graph

Daily Weather History Graph

Search for Another Location

Airport or City:

Trip Planner

Search our weather history database for the weather conditions in past years. The results will help you decide how hot, cold, wet, or windy it might be!

Date:

Astronomy

Feb. 04, 2013 Rise Set
Actual Time 6:52 AM MST 5:08 PM MST
Civil Twilight 6:24 AM MST 5:37 PM MST
Nautical Twilight 5:51 AM MST 6:09 PM MST
Astronomical Twilight 5:19 AM MST 6:41 PM MST
Moon 1:30 AM MST (2/4) 11:33 AM MST (2/4)
Length of Visible Light 11h 13m
Length of Day
10h 15m
Last Quarter, 36% of the Moon is Illuminated
Feb 4
Last Quarter
Feb 10
New
Feb 17
First Quarter
Feb 25
Full
Mar 4
Last Quarter

Hourly Weather History & Observations

Time (MST) Temp. Windchill Dew Point Humidity Pressure Visibility Wind Dir Wind Speed Gust Speed Precip Events Conditions
12:53 AM 32.0 °F 23.0 °F 21.9 °F 66% 29.94 in 10.0 mi NW 11.5 mph - N/A   Clear
1:53 AM 30.9 °F 21.7 °F 21.9 °F 69% 29.97 in 10.0 mi NW 11.5 mph - N/A   Clear
3:53 AM 26.1 °F 18.4 °F 19.0 °F 75% 29.99 in 10.0 mi WNW 6.9 mph - N/A   Clear
4:53 AM 28.0 °F 19.3 °F 19.0 °F 69% 30.01 in 10.0 mi NW 9.2 mph - N/A   Clear
5:53 AM 25.0 °F 17.1 °F 18.0 °F 75% 30.02 in 10.0 mi WNW 6.9 mph - N/A   Clear
6:53 AM 25.0 °F 18.1 °F 18.0 °F 75% 30.04 in 10.0 mi West 5.8 mph - N/A   Clear
7:53 AM 30.0 °F 23.2 °F 19.9 °F 66% 30.02 in 10.0 mi WNW 6.9 mph - N/A   Clear
8:53 AM 36.0 °F 32.1 °F 23.0 °F 59% 30.01 in 10.0 mi West 4.6 mph - N/A   Clear
9:53 AM 43.0 °F 39.5 °F 21.9 °F 43% 29.99 in 10.0 mi SW 5.8 mph - N/A   Clear
10:53 AM 48.0 °F - 21.9 °F 36% 29.97 in 10.0 mi SSW 9.2 mph - N/A   Clear
11:53 AM 51.1 °F - 19.9 °F 29% 29.93 in 10.0 mi WSW 12.7 mph - N/A   Clear
12:53 PM 53.1 °F - 18.0 °F 25% 29.89 in 10.0 mi West 10.4 mph - N/A   Clear
1:53 PM 55.0 °F - 16.0 °F 22% 29.86 in 10.0 mi West 11.5 mph 18.4 mph N/A   Clear
2:53 PM 55.9 °F - 15.1 °F 20% 29.84 in 10.0 mi SW 9.2 mph - N/A   Clear
3:53 PM 55.0 °F - 12.9 °F 19% 29.83 in 10.0 mi West 8.1 mph - N/A   Clear
4:53 PM 51.1 °F - 18.0 °F 27% 29.84 in 10.0 mi West 3.5 mph - N/A   Clear
5:53 PM 42.1 °F 40.2 °F 19.0 °F 40% 29.89 in 10.0 mi WNW 3.5 mph - N/A   Clear
6:53 PM 41.0 °F 37.1 °F 19.0 °F 41% 29.91 in 10.0 mi NW 5.8 mph - N/A   Clear
7:53 PM 37.9 °F 30.5 °F 19.0 °F 47% 29.92 in 10.0 mi WNW 11.5 mph - N/A   Clear
8:53 PM 37.9 °F 32.1 °F 19.9 °F 48% 29.92 in 10.0 mi NW 8.1 mph - N/A   Clear
9:53 PM 35.1 °F 27.9 °F 21.0 °F 57% 29.91 in 10.0 mi NW 9.2 mph - N/A   Clear
10:53 PM 28.9 °F 22.8 °F 21.0 °F 72% 29.93 in 10.0 mi West 5.8 mph - N/A   Clear
11:53 PM 28.9 °F 25.2 °F 21.0 °F 72% 29.93 in 10.0 mi NW 3.5 mph - N/A   Clear